| time (UTC) | temp F | wind direction | speed MPH | gust MPH | rain 1hr in | rain 24hr in | rain mn in | humidity % | barometer mb |
| 20260507193145 | 70 | 11 | 3.0 | 7.0 | 0.00 | 0.00 | 0.00 | 42 | 1018.5 |
| 20260507191530 | 70 | 333 | 4.0 | 10.0 | 0.00 | 0.00 | 0.00 | 43 | 1018.7 |
| 20260507190033 | 70 | 350 | 4.0 | 10.0 | 0.00 | 0.00 | 0.00 | 44 | 1018.8 |
| 20260507184529 | 68 | 330 | 3.0 | 8.0 | 0.00 | 0.00 | 0.00 | 46 | 1019.0 |
| 20260507183040 | 67 | 317 | 7.0 | 12.0 | 0.00 | 0.00 | 0.00 | 48 | 1019.1 |
| 20260507181531 | 66 | 318 | 6.0 | 11.0 | 0.00 | 0.00 | 0.00 | 52 | 1019.2 |
| 20260507180031 | 65 | 349 | 6.0 | 11.0 | 0.00 | 0.00 | 0.00 | 54 | 1019.3 |
| 20260507174532 | 63 | 327 | 6.0 | 11.0 | 0.00 | 0.00 | 0.00 | 59 | 1019.4 |
| 20260507171533 | 61 | 343 | 8.0 | 15.0 | 0.00 | 0.00 | 0.00 | 63 | 1019.6 |
| 20260507170032 | 60 | 339 | 8.0 | 13.0 | 0.00 | 0.00 | 0.00 | 65 | 1019.6 |
| 20260507164531 | 60 | 318 | 5.0 | 10.0 | 0.00 | 0.00 | 0.00 | 67 | 1019.6 |
| 20260507163032 | 60 | 264 | 5.0 | 10.0 | 0.00 | 0.00 | 0.00 | 66 | 1019.5 |
| 20260507161532 | 60 | 249 | 2.0 | 6.0 | 0.00 | 0.00 | 0.00 | 66 | 1019.8 |
| 20260507160032 | 60 | 246 | 4.0 | 7.0 | 0.00 | 0.00 | 0.00 | 68 | 1020.1 |
| 20260507154530 | 59 | 261 | 3.0 | 7.0 | 0.00 | 0.00 | 0.00 | 73 | 1020.2 |
| 20260507153031 | 57 | 227 | 2.0 | 7.0 | 0.00 | 0.00 | 0.00 | 81 | 1020.3 |
| 20260507151530 | 54 | 209 | 0.0 | 4.0 | 0.00 | 0.00 | 0.00 | 85 | 1020.4 |
| 20260507150034 | 52 | 307 | 2.0 | 4.0 | 0.00 | 0.00 | 0.00 | 89 | 1020.4 |
| 20260507134532 | 45 | 160 | 0.0 | 4.0 | 0.00 | 0.00 | 0.00 | 91 | 1020.1 |
| 20260507133028 | 44 | 157 | 1.0 | 3.0 | 0.00 | 0.00 | 0.00 | 91 | 1020.1 |
| 20260507131606 | 45 | 157 | 1.0 | 4.0 | 0.00 | 0.00 | 0.00 | 91 | 1020.1 |
| 20260507124530 | 45 | 63 | 0.0 | 3.0 | 0.00 | 0.00 | 0.00 | 90 | 1020.0 |
| 20260507123107 | 45 | 117 | 2.0 | 5.0 | 0.00 | 0.00 | 0.00 | 90 | 1019.8 |
| 20260507121531 | 45 | 93 | 2.0 | 5.0 | 0.00 | 0.00 | 0.00 | 89 | 1019.7 |
| 20260507120029 | 46 | 101 | 1.0 | 4.0 | 0.00 | 0.00 | 0.00 | 88 | 1019.7 |
| 20260507114534 | 46 | 132 | 1.0 | 4.0 | 0.00 | 0.00 | 0.00 | 87 | 1019.5 |
| 20260507113030 | 47 | 23 | 0.0 | 3.0 | 0.00 | 0.00 | 0.00 | 86 | 1019.5 |
| 20260507111531 | 47 | 111 | 2.0 | 4.0 | 0.00 | 0.00 | 0.00 | 85 | 1019.3 |
| 20260507110029 | 48 | 68 | 1.0 | 4.0 | 0.00 | 0.00 | 0.00 | 84 | 1019.3 |
| 20260507104607 | 49 | 109 | 3.0 | 6.0 | 0.00 | 0.00 | 0.00 | 83 | 1019.2 |
| 20260507103106 | 50 | 87 | 3.0 | 7.0 | 0.00 | 0.00 | 0.00 | 82 | 1019.1 |
| 20260507101531 | 51 | 79 | 5.0 | 9.0 | 0.00 | 0.00 | 0.00 | 80 | 1019.0 |
| 20260507100036 | 52 | 49 | 3.0 | 7.0 | 0.00 | 0.00 | 0.00 | 80 | 1019.1 |
| 20260507094531 | 51 | 337 | 4.0 | 7.0 | 0.00 | 0.00 | 0.00 | 82 | 1019.1 |
| 20260507093031 | 51 | 36 | 2.0 | 8.0 | 0.00 | 0.00 | 0.00 | 83 | 1019.2 |
| 20260507091605 | 51 | 55 | 3.0 | 9.0 | 0.00 | 0.00 | 0.00 | 82 | 1019.2 |
| 20260507090032 | 52 | 95 | 2.0 | 6.0 | 0.00 | 0.00 | 0.00 | 82 | 1019.1 |
| 20260507081531 | 53 | 33 | 2.0 | 6.0 | 0.00 | 0.00 | 0.00 | 79 | 1019.3 |
| 20260507074531 | 54 | 26 | 2.0 | 5.0 | 0.00 | 0.00 | 0.00 | 75 | 1019.3 |
| 20260507071532 | 54 | 317 | 3.0 | 7.0 | 0.00 | 0.00 | 0.00 | 74 | 1019.2 |
| 20260507070029 | 53 | 320 | 1.0 | 4.0 | 0.00 | 0.00 | 0.00 | 75 | 1019.3 |
| 20260507064532 | 54 | 317 | 0.0 | 3.0 | 0.00 | 0.00 | 0.00 | 74 | 1019.4 |
| 20260507063030 | 55 | 22 | 0.0 | 3.0 | 0.00 | 0.00 | 0.00 | 71 | 1019.5 |
| 20260507061530 | 56 | 12 | 2.0 | 5.0 | 0.00 | 0.00 | 0.00 | 67 | 1019.6 |
| 20260507054531 | 59 | 283 | 5.0 | 9.0 | 0.00 | 0.00 | 0.00 | 61 | 1019.7 |
| 20260507051529 | 59 | 261 | 9.0 | 14.0 | 0.00 | 0.00 | 0.00 | 58 | 1019.6 |
| 20260507050029 | 59 | 264 | 6.0 | 10.0 | 0.00 | 0.00 | 0.00 | 56 | 1019.8 |
| 20260507044529 | 60 | 269 | 3.0 | 6.0 | 0.00 | 0.00 | 0.00 | 54 | 1019.9 |
| 20260507043029 | 61 | 255 | 0.0 | 5.0 | 0.00 | 0.00 | 0.00 | 52 | 1019.8 |
| 20260507041607 | 62 | 276 | 4.0 | 15.0 | 0.00 | 0.00 | 0.00 | 52 | 1019.7 |
| 20260507040035 | 62 | 273 | 8.0 | 15.0 | 0.00 | 0.00 | 0.00 | 52 | 1019.5 |
| 20260507034531 | 62 | 274 | 6.0 | 13.0 | 0.00 | 0.00 | 0.00 | 52 | 1019.5 |
| 20260507024607 | 65 | 286 | 11.0 | 22.0 | 0.00 | 0.00 | 0.00 | 50 | 1018.8 |
| 20260507023029 | 65 | 285 | 11.0 | 20.0 | 0.00 | 0.00 | 0.00 | 50 | 1018.9 |
| 20260507021530 | 66 | 288 | 8.0 | 17.0 | 0.00 | 0.00 | 0.00 | 49 | 1018.8 |
| 20260507020029 | 66 | 282 | 9.0 | 15.0 | 0.00 | 0.00 | 0.00 | 49 | 1018.7 |
| 20260507014529 | 67 | 275 | 7.0 | 15.0 | 0.00 | 0.00 | 0.00 | 48 | 1018.6 |
| 20260507013030 | 67 | 278 | 7.0 | 17.0 | 0.00 | 0.00 | 0.00 | 48 | 1018.5 |
| 20260507011530 | 68 | 285 | 8.0 | 15.0 | 0.00 | 0.00 | 0.00 | 46 | 1018.4 |
| 20260507010031 | 68 | 286 | 10.0 | 22.0 | 0.00 | 0.00 | 0.00 | 45 | 1018.3 |
| 20260507004529 | 69 | 286 | 10.0 | 19.0 | 0.00 | 0.00 | 0.00 | 45 | 1018.2 |
| 20260507003031 | 69 | 282 | 10.0 | 19.0 | 0.00 | 0.00 | 0.00 | 45 | 1018.1 |
| 20260507001605 | 69 | 281 | 8.0 | 16.0 | 0.00 | 0.00 | 0.00 | 46 | 1018.0 |
| 20260507000029 | 71 | 300 | 7.0 | 18.0 | 0.00 | 0.00 | 0.00 | 46 | 1017.9 |
| 20260506234531 | 71 | 285 | 9.0 | 18.0 | 0.00 | 0.00 | 0.00 | 45 | 1017.7 |
| 20260506233032 | 73 | 301 | 7.0 | 14.0 | 0.00 | 0.00 | 0.00 | 44 | 1017.8 |
| 20260506231530 | 74 | 297 | 8.0 | 19.0 | 0.00 | 0.00 | 0.00 | 43 | 1017.7 |
| 20260506230031 | 75 | 298 | 8.0 | 16.0 | 0.00 | 0.00 | 0.00 | 44 | 1018.0 |
| 20260506224528 | 75 | 309 | 8.0 | 19.0 | 0.00 | 0.00 | 0.00 | 44 | 1018.1 |
| 20260506223032 | 74 | 301 | 10.0 | 17.0 | 0.00 | 0.00 | 0.00 | 44 | 1018.2 |
| 20260506220031 | 75 | 293 | 10.0 | 21.0 | 0.00 | 0.00 | 0.00 | 43 | 1018.0 |
| 20260506214531 | 76 | 298 | 9.0 | 19.0 | 0.00 | 0.00 | 0.00 | 43 | 1018.0 |
| 20260506213106 | 75 | 281 | 11.0 | 23.0 | 0.00 | 0.00 | 0.00 | 44 | 1017.9 |
| 20260506211530 | 74 | 289 | 11.0 | 19.0 | 0.00 | 0.00 | 0.00 | 47 | 1018.0 |
| 20260506210028 | 75 | 302 | 11.0 | 22.0 | 0.00 | 0.00 | 0.00 | 45 | 1018.1 |
| 20260506204645 | 76 | 307 | 11.0 | 17.0 | 0.00 | 0.00 | 0.00 | 44 | 1018.2 |
| 20260506201606 | 76 | 337 | 8.0 | 18.0 | 0.00 | 0.00 | 0.00 | 47 | 1018.1 |
| 20260506200028 | 75 | 336 | 9.0 | 15.0 | 0.00 | 0.00 | 0.00 | 48 | 1018.2 |
| 20260506194531 | 73 | 322 | 11.0 | 18.0 | 0.00 | 0.00 | 0.00 | 50 | 1018.4 |